BREEZE-KM R/B, 40556

Orbit data source: Space-Track

BREEZE-KM R/B, 40556 is space debris in LEO originally from a launch on Tue, 31 Mar 2015 UTC launched from the Plesetsk Missile And Space Complex (PKMTR). Debris objects in space refer to the collection of defunct objects orbiting the Earth. Examples of debris include non-operational satellites, rocket bodies, and fragments generated from explosions, collisions, or faulty payload assembly.

Loading next visibility...
Identifier
40556, 2015-020E
Orbit
LEO
Last TLE update
8 hours ago
Origin
Manufacturer
Khrunichev
Mission
Spacecraft
Bus & Motor
BRIZ, S5.92
Mass
2,370 kg wet, 2,370 kg dry
Launch date (UTC)
2015-03-31 (10 years ago)
Launch vehicle
Unknown
Launch site
Plesetsk Missile And Space Complex (PKMTR)
Object type
Payload
Rocket body
Debris
Shape & HBR
Hex Cyl + 1 Rod, 4.1 m
Radar Cross Section
10.190 m², Large (>1 m²)

Expand to show TLE details & history

TLE from 8 hours ago
0 BREEZE-KM R/B
1 40556U 15020E   25183.95170252  .00000017  00000-0  17497-4 0  9998
2 40556  82.4890  79.5284 0215423 145.2080 216.3326 12.80553853479457
Epoch: 2025-07-02T22:50Z
TLE epoch observation values (Epoch: 2025-07-02T22:50:27.097Z)
Latitude
-0.0001°
Longitude
175.69005°
Altitude
1,477.18 km
Speed
7.062 km/s
True Right ascension
05h 18m 06s
True Declination
0° 00' 00"
Sunlit
Object was in daylight at epoch
Visualization orbit readout
Latitude
12.01471°
Longitude
177.07952°
Altitude
1,451.191 km
Speed
7.086 km/s
Apparent Right ascension
05h 41m 44s
Apparent Declination
-11° 05' 30"
Sunlit
Object is in daylight
Visualization observer readout
Local Sidereal Time
18:10:03
Azimuth
14.212° NNE
Elevation
-60.501°
Doppler factor
1
Orbital elements
Apogee altitude
1,502.732 km
Perigee altitude
1,170.349 km
Semi-major axis
7,714.677 km
Eccentricity
0.02154
Inclination
82.489°
RAAN
79.5284°
Arg. of periapsis
145.208°
True anomaly
Unknown
Mean anomaly
216.3326°
Eccentric anomaly
Unknown
Mean motion
3.20307 °/min
Orbital period
112.39 mins
BSTAR
0.000017497
Loading maneuver chart data...
Loading SW <> Apogee altitude chart data...
Loading historical data...
Loading historical data...
Loading historical data...
Loading historical data...
Loading historical data...
Loading historical data...
Loading historical data...

BREEZE-KM R/B Visibility forecast

Observer location: undefined°, undefined°

Span
Click to sort rows by Start time (UTC) header in descending order
Start Az.
Max El. time (UTC)
Max El. Az.
Max El.
End time (UTC)
End Az.
4 mins2025-07-03 07:01:22.881Z299.395° NW2025-07-03 07:03:22.881Z282.463° WNW11.601°2025-07-03 07:05:22.881Z265.551° W
6 mins2025-07-03 15:53:22.881Z99.854° ESE2025-07-03 15:56:22.881Z76.477° E14.204°2025-07-03 15:59:22.881Z53.119° ENE
14 mins2025-07-03 17:41:22.881Z181.976° SSW2025-07-03 17:48:22.881Z95.316° ESE44.858°2025-07-03 17:55:22.881Z9.297° NNE
9 mins2025-07-03 19:38:22.881Z259.334° W2025-07-03 19:42:22.881Z291.891° WNW17.974°2025-07-03 19:47:22.881Z333.441° NNW
9 mins2025-07-04 03:36:22.881Z28.14° NE2025-07-04 03:40:22.881Z72.117° E23.429°2025-07-04 03:45:22.881Z120.81° SE
12 mins2025-07-04 05:28:22.881Z339.243° N2025-07-04 05:34:22.881Z255.551° W38.261°2025-07-04 05:40:22.881Z195.768° SSW
|